[[{"header":{"parameterUnit":"m.s-1","parameterCategory":1,"la1":30.2991,"la2":30.254,"lo1":-89.0895,"lo2":-89.0444,"dy":0.0017,"dx":0.0017,"nx":28,"ny":28,"refTime":"2025-04-17T21:00:00:Z","depth":0,"parameterNumber":2,"parameterNumberName":"U-component_of_WINDS"},"data":[0,0,0,0,0,0,0,0,0,0,0,0,0,0,0,0,0,0,0,0,0,0,0,0,0,0,0,0,0,0,0,0,0,0,0,0,0,0,0,0,0,0,0,0,0,0,0,0,0,0,0,0,0,0,0,0,0,0,-2.6086,-2.6087,0,-2.612,-2.612,-2.612,-2.6099,-2.6098,-2.6097,-2.6096,-2.6131,-2.6132,-2.6134,0,0,0,0,0,0,0,0,0,0,0,0,0,-2.6006,-2.6008,-2.6086,-2.6087,-2.6087,-2.6119,-2.612,-2.612,-2.6099,-2.6098,-2.6097,-2.6096,-2.613,-2.6132,-2.6134,0,0,0,0,0,0,0,0,0,0,0,0,0,-2.604,-2.6008,-2.6086,-2.6081,-2.608,-2.6119,-2.612,-2.6121,-2.61,-2.6098,-2.6097,-2.6095,-2.6129,-2.6132,-2.6135,-2.6181,0,0,-2.6143,-2.6144,0,0,0,0,0,0,0,0,-2.6038,-2.6043,-2.6081,-2.6081,-2.6081,-2.6104,-2.6104,-2.6141,-2.61,-2.6092,-2.6096,-2.6095,-2.6123,-2.6126,-2.6136,-2.6183,-2.6184,-2.6143,-2.6145,-2.6146,-2.6147,0,0,0,0,0,0,0,-2.6036,-2.6042,-2.6099,-2.6082,-2.6082,-2.6077,-2.608,-2.6111,-2.6116,-2.6093,-2.6091,-2.6096,-2.6123,-2.6133,-2.6136,-2.6185,-2.6143,-2.6146,-2.6147,-2.6149,-2.6273,-2.6274,0,0,0,0,0,0,-2.6034,-2.604,-2.6098,-2.61,-2.6055,-2.6079,-2.6083,-2.6098,-2.6115,-2.6116,-2.6097,-2.6094,-2.6129,-2.6133,-2.6137,-2.6193,-2.6146,-2.6149,-2.615,-2.6271,-2.6273,-2.6275,0,0,0,0,0,0,-2.6032,-2.6039,-2.6097,-2.607,-2.6077,-2.6082,-2.6099,-2.6099,-2.611,-2.6118,-2.6119,-2.6106,-2.6128,-2.6133,-2.6171,-2.6194,-2.615,-2.6153,-2.6269,-2.6272,-2.6274,-2.6305,0,0,0,0,0,0,-2.603,-2.6039,-2.6056,-2.607,-2.6078,-2.6129,-2.6101,-2.6101,-2.6114,-2.6112,-2.6127,-2.6129,-2.6127,-2.6167,-2.6173,-2.6197,-2.6155,-2.6267,-2.627,-2.6273,-2.6302,-2.6308,-2.6313,0,0,0,0,0,-2.6027,-2.6064,-2.6057,-2.6064,-2.61,-2.6131,-2.6135,-2.6133,-2.6116,-2.6134,-2.614,-2.6128,-2.6191,-2.6171,-2.6178,-2.6203,-2.6266,-2.627,-2.6273,-2.6299,-2.6307,-2.6313,0,0,0,0,0,0,-2.6052,-2.6065,-2.6058,-2.61,-2.6115,-2.6127,-2.6149,-2.6141,-2.6161,-2.6157,-2.6154,-2.6158,-2.6196,-2.6203,-2.6181,-2.6249,-2.6226,-2.6231,-2.6243,-2.625,-2.6256,-2.6253,-2.6157,0,0,0,0,0,-2.6062,-2.6086,-2.6096,-2.6132,-2.614,-2.6144,-2.6157,-2.6154,-2.6169,-2.6175,-2.6183,-2.6198,-2.6221,-2.6236,-2.6258,-2.6303,-2.6306,-2.6324,-2.633,-2.6335,-2.6339,-2.6363,-2.6371,-2.6287,-2.6287,-2.6287,0,0,-2.6084,-2.6094,-2.6109,-2.6138,-2.6148,-2.6173,-2.6149,-2.6176,-2.6194,-2.6179,-2.6214,-2.6221,-2.6238,-2.6279,-2.6298,-2.6286,-2.6363,-2.6339,-2.6343,-2.6345,-2.6368,-2.6376,-2.6383,-2.629,-2.6289,-2.6289,0,0,-2.6135,-2.6146,-2.6177,-2.6188,-2.6205,-2.6207,-2.6215,-2.6229,-2.6233,-2.6269,-2.6258,-2.628,-2.632,-2.6332,-2.6343,-2.6401,-2.6391,-2.6409,-2.6439,-2.6463,-2.6469,-2.6475,-2.6495,-2.6503,-2.6413,-2.6413,-2.6413,0,-2.616,-2.6196,-2.6194,-2.6222,-2.6235,-2.6222,-2.6254,-2.6265,-2.6289,-2.6298,-2.6285,-2.6335,-2.6345,-2.6389,-2.6404,-2.6414,-2.6422,-2.6406,-2.6469,-2.6474,-2.648,-2.6499,-2.6507,-2.6415,-2.6415,-2.6415,-2.6415,0,-2.6226,-2.6251,-2.6274,-2.6297,-2.6313,-2.6343,-2.6345,-2.6361,-2.6358,-2.6362,-2.6398,-2.6411,-2.6435,-2.6445,-2.6442,-2.6489,-2.6482,-2.6469,-2.6445,-2.649,-2.6508,-2.6515,-2.6418,-2.6417,-2.6417,-2.6416,0,0,-2.6292,-2.6314,-2.6322,-2.6332,-2.635,-2.637,-2.64,-2.6424,-2.6438,-2.6455,-2.6479,-2.6514,-2.6503,-2.6516,-2.6514,-2.6535,-2.658,-2.652,-2.652,-2.653,-2.6633,-2.6642,-2.665,-2.6574,-2.6576,-2.6577,-2.6631,0,-2.6344,-2.6395,-2.6394,-2.6442,-2.6466,-2.6455,-2.6481,-2.6495,-2.65,-2.6522,-2.6527,-2.6552,-2.6535,-2.6543,-2.6564,-2.657,-2.66,-2.6566,-2.6597,-2.6598,-2.6592,-2.666,-2.6669,-2.672,-2.6638,-2.664,-2.6641,0,-2.6412,-2.6431,-2.648,-2.6496,-2.6506,-2.6529,-2.655,-2.6571,-2.6587,-2.659,-2.6605,-2.66,-2.6631,-2.6607,-2.6649,-2.6626,-2.6639,-2.6644,-2.6646,-2.6648,-2.6621,-2.6663,-2.6736,-2.6744,-2.6652,-2.6651,-2.665,0,-2.6454,-2.6493,-2.6527,-2.6537,-2.6555,-2.6572,-2.6581,-2.6595,-2.661,-2.6629,-2.6639,-2.6662,-2.6674,-2.6692,-2.6694,-2.6676,-2.6737,-2.6713,-2.6739,-2.6739,-2.6751,-2.675,-2.6827,-2.6761,-2.6761,-2.6761,-2.6761,0,-2.6512,-2.6543,-2.6547,-2.6568,-2.6603,-2.6602,-2.6636,-2.6644,-2.6657,-2.668,-2.6673,-2.6695,-2.6696,-2.6718,-2.672,-2.6755,-2.6761,-2.6763,-2.6763,-2.6763,-2.6763,-2.6771,-2.6767,-2.6763,-2.6762,-2.6762,-2.6762,0,-2.6565,-2.6569,-2.6606,-2.6621,-2.6626,-2.6651,-2.6664,-2.6684,-2.6689,-2.6718,-2.6725,-2.6733,-2.6759,-2.6762,-2.6793,-2.6794,-2.6836,-2.6833,-2.683,-2.6829,-2.6855,-2.6852,-2.6939,-2.695,-2.6878,-2.6878,-2.6879,0,-2.6601,-2.6625,-2.6642,-2.6657,-2.6667,-2.669,-2.6705,-2.6706,-2.6722,-2.6743,-2.6761,-2.6786,-2.6806,-2.6849,-2.6858,-2.6881,-2.6878,-2.6907,-2.6881,-2.6881,-2.6878,-2.6876,-2.6878,-2.6911,-2.6912,-2.6913,-2.6913,0,-2.6665,-2.6666,-2.6687,-2.671,-2.6727,-2.6745,-2.6762,-2.6774,-2.6777,-2.6796,-2.6822,-2.6838,-2.687,-2.6895,-2.6919,-2.6928,-2.6921,-2.6921,-2.6928,-2.6928,-2.6926,-2.6927,-2.6843,-2.6919,-2.6918,-2.6918,-2.6918,-2.6917,-2.671,-2.6731,-2.6746,-2.677,-2.6783,-2.6799,-2.6819,-2.6827,-2.6849,-2.6874,-2.6874,-2.6903,-2.692,-2.6951,-2.6962,-2.6985,-2.6976,-2.6986,-2.6989,-2.6991,-2.6993,-2.6923,-2.699,-2.6989,-2.6989,-2.6989,-2.6989,0,-2.6773,-2.6783,-2.6805,-2.6829,-2.6848,-2.684,-2.6858,-2.6875,-2.6901,-2.6917,-2.6937,-2.6968,-2.6993,-2.7004,-2.7028,-2.7045,-2.7042,-2.7051,-2.7049,-2.7052,-2.7001,-2.6991,-2.7053,-2.7053,-2.7053,-2.7053,-2.7053,-2.7053,-2.6808,-2.6842,-2.6845,-2.6886,-2.6895,-2.6923,-2.6935,-2.6949,-2.6962,-2.6997,-2.7017,-2.7024,-2.7039,-2.7064,-2.7087,-2.709,-2.7099,-2.7109,-2.711,-2.7062,-2.7055,-2.7049,-2.7041,-2.7111,-2.7111,-2.7159,-2.716,-2.716]},{"header":{"parameterUnit":"m.s-1","parameterCategory":1,"la1":30.2991,"la2":30.254,"lo1":-89.0895,"lo2":-89.0444,"dy":0.0017,"dx":0.0017,"nx":28,"ny":28,"refTime":"2025-04-17T21:00:00:Z","depth":0,"parameterNumber":3,"parameterNumberName":"V-component_of_WINDS"},"data":[0,0,0,0,0,0,0,0,0,0,0,0,0,0,0,0,0,0,0,0,0,0,0,0,0,0,0,0,0,0,0,0,0,0,0,0,0,0,0,0,0,0,0,0,0,0,0,0,0,0,0,0,0,0,0,0,0,0,5.4698,5.4699,0,5.4731,5.4731,5.4731,5.4678,5.4676,5.4674,5.4673,5.4702,5.4704,5.4706,0,0,0,0,0,0,0,0,0,0,0,0,0,5.4587,5.4589,5.4698,5.4699,5.4699,5.4731,5.4731,5.4732,5.4678,5.4676,5.4674,5.4672,5.4701,5.4704,5.4707,0,0,0,0,0,0,0,0,0,0,0,0,0,5.4629,5.459,5.4698,5.4676,5.4675,5.4731,5.4731,5.4732,5.4679,5.4676,5.4673,5.4671,5.47,5.4703,5.4707,5.4784,0,0,5.4718,5.472,0,0,0,0,0,0,0,0,5.4626,5.4633,5.4679,5.4678,5.4676,5.4698,5.4702,5.4749,5.4679,5.4677,5.4673,5.4669,5.4702,5.4705,5.4717,5.4786,5.4787,5.4719,5.4721,5.4722,5.4723,0,0,0,0,0,0,0,5.4624,5.4631,5.4711,5.468,5.4678,5.4664,5.4667,5.4711,5.4704,5.4677,5.4673,5.4678,5.4701,5.4714,5.4718,5.4787,5.4719,5.4722,5.4724,5.4726,5.4921,5.4923,0,0,0,0,0,0,5.4624,5.4629,5.471,5.4712,5.4644,5.4668,5.4671,5.4693,5.4704,5.4703,5.468,5.4675,5.4709,5.4713,5.4718,5.4809,5.4722,5.4726,5.4728,5.4918,5.4921,5.4924,0,0,0,0,0,0,5.4622,5.4632,5.4709,5.467,5.4678,5.4673,5.4698,5.4696,5.4709,5.4706,5.4704,5.4695,5.4707,5.4713,5.4769,5.481,5.4728,5.4731,5.4914,5.4919,5.4923,5.4992,0,0,0,0,0,0,5.4619,5.4631,5.4661,5.4671,5.4681,5.4759,5.4701,5.4698,5.4716,5.471,5.472,5.4719,5.4705,5.4763,5.4772,5.4813,5.4734,5.491,5.4916,5.4921,5.4986,5.4999,5.5009,0,0,0,0,0,5.4615,5.4678,5.4663,5.4673,5.4718,5.4762,5.4767,5.4752,5.4719,5.4749,5.4747,5.4718,5.4804,5.477,5.4779,5.4822,5.4908,5.4915,5.4921,5.4981,5.4996,5.5009,0,0,0,0,0,0,5.4672,5.4679,5.4662,5.4731,5.4747,5.4753,5.479,5.4768,5.4792,5.4785,5.4764,5.4766,5.4826,5.4829,5.4791,5.4897,5.485,5.4859,5.4893,5.4907,5.4918,5.4916,5.4737,0,0,0,0,0,5.4693,5.4729,5.4733,5.4793,5.4802,5.4795,5.4813,5.48,5.4815,5.4821,5.4823,5.4837,5.4867,5.4887,5.4915,5.4987,5.4988,5.5021,5.5032,5.5042,5.5049,5.5088,5.5102,5.4946,5.4946,5.4946,0,0,5.4736,5.4744,5.4768,5.4805,5.4815,5.4852,5.4801,5.4841,5.4868,5.4826,5.4879,5.4882,5.4896,5.496,5.4988,5.4965,5.5093,5.505,5.5058,5.506,5.5096,5.5111,5.5124,5.4951,5.495,5.4949,0,0,5.4833,5.4843,5.4895,5.4907,5.4924,5.4919,5.4932,5.4942,5.4942,5.4995,5.4965,5.4996,5.5048,5.506,5.5072,5.5176,5.515,5.5185,5.5244,5.5282,5.5294,5.5305,5.5341,5.5354,5.5193,5.5193,5.5193,0,5.4883,5.4939,5.4923,5.4967,5.4984,5.495,5.5001,5.5013,5.5038,5.505,5.5024,5.5089,5.5096,5.5163,5.5188,5.52,5.5212,5.5183,5.5294,5.5304,5.5314,5.5348,5.5362,5.5197,5.5197,5.5196,5.5196,0,5.5,5.5039,5.5079,5.5106,5.5127,5.5174,5.5165,5.5188,5.5174,5.5171,5.5226,5.5233,5.5262,5.5277,5.5262,5.5342,5.5326,5.5298,5.5249,5.5333,5.5365,5.5378,5.5203,5.5202,5.52,5.5199,0,0,5.5133,5.5152,5.5166,5.5178,5.5195,5.5225,5.527,5.53,5.532,5.5339,5.5376,5.5422,5.5395,5.541,5.5396,5.543,5.5511,5.5396,5.5396,5.5417,5.5598,5.5619,5.5634,5.5494,5.5497,5.5498,5.5596,0,5.5229,5.5309,5.5297,5.5374,5.541,5.5378,5.5418,5.5432,5.5432,5.5461,5.5459,5.5492,5.5455,5.5464,5.5495,5.5494,5.5546,5.5487,5.5527,5.5529,5.5524,5.5651,5.5673,5.5765,5.5609,5.5611,5.5612,0,5.5351,5.5377,5.5458,5.547,5.5485,5.5521,5.5547,5.5576,5.5591,5.5588,5.5606,5.5587,5.5631,5.5584,5.5645,5.5604,5.562,5.5622,5.5626,5.5628,5.5575,5.5656,5.5794,5.5808,5.5632,5.563,5.5629,0,5.5439,5.5493,5.5549,5.556,5.5576,5.5602,5.561,5.5623,5.5641,5.5664,5.5676,5.5703,5.5718,5.5739,5.5728,5.5694,5.579,5.5742,5.5788,5.5789,5.5809,5.5808,5.5951,5.5821,5.5821,5.582,5.582,0,5.5548,5.5598,5.5589,5.5623,5.5679,5.5664,5.5719,5.5723,5.5735,5.5768,5.5742,5.5774,5.5757,5.5787,5.5779,5.583,5.5837,5.5835,5.5832,5.5837,5.5837,5.5846,5.5839,5.5824,5.5823,5.5822,5.5822,0,5.5654,5.565,5.5709,5.572,5.5724,5.5765,5.5773,5.5805,5.5803,5.5845,5.5854,5.5851,5.5885,5.5876,5.5913,5.5907,5.5972,5.5961,5.5967,5.5964,5.601,5.6006,5.6164,5.6183,5.6042,5.6043,5.6044,0,5.5723,5.5762,5.5778,5.5799,5.581,5.5844,5.5864,5.5851,5.5872,5.5894,5.5922,5.5955,5.598,5.6036,5.6036,5.6064,5.6053,5.6106,5.6057,5.6061,5.6053,5.605,5.6054,5.6116,5.6117,5.6119,5.612,0,5.5846,5.5843,5.5873,5.5903,5.5927,5.595,5.5969,5.5988,5.5977,5.6002,5.6038,5.6057,5.6096,5.6128,5.6154,5.616,5.6138,5.6136,5.6148,5.6153,5.6154,5.6154,5.5993,5.6132,5.613,5.613,5.6129,5.6128,5.5936,5.5969,5.5985,5.602,5.6034,5.6053,5.6084,5.6086,5.6116,5.6148,5.6138,5.6179,5.6193,5.6226,5.6236,5.6267,5.6247,5.6264,5.6268,5.6273,5.6278,5.6151,5.6272,5.6271,5.6271,5.6271,5.627,0,5.6056,5.6066,5.6098,5.6128,5.6155,5.6134,5.6155,5.6178,5.6215,5.6231,5.6257,5.6298,5.633,5.6333,5.6362,5.6386,5.6377,5.6394,5.6392,5.6394,5.6295,5.6282,5.6401,5.6401,5.6401,5.6401,5.6401,5.6401,5.6122,5.6177,5.6176,5.6237,5.6246,5.6287,5.6301,5.6318,5.6331,5.6379,5.6406,5.6408,5.6419,5.6449,5.6477,5.6477,5.6488,5.651,5.6506,5.6413,5.64,5.6388,5.6375,5.6512,5.6513,5.6601,5.6602,5.6603]}]]